Regional Weather Roundup
Issued by NWS

Home | Current Version | Previous Version | Graphics & Text | Print | Product List | Glossary On
Versions: 1 2 3 4 5 6 7 8 9 10 11 12 13 14 15 16 17 18 19 20 21 22 23 24 25 26 27 28 29 30 31 32 33 34 35 36 37 38 39 40 41 42 43 44 45 46 47 48 49 50
000
ASUS44 KMEG 301010
RWRTN
TENNESSEE HOURLY STATE WEATHER ROUNDUP
NATIONAL WEATHER SERVICE MEMPHIS TN
500 AM CDT WED JUL 30 2014

TNZ002-004-019-021-049-052-054-088>092-301100-
WEST TENNESSEE

CITY           SKY/WX    TMP DP  RH WIND       PRES   REMARKS
MEMPHIS INTL   PTCLDY    65  56  72 CALM      30.09S
NWS MEMPHIS      N/A     59 N/A N/A MISG        N/A
JACKSON        CLEAR     55  53  93 CALM      30.10R
DYERSBURG      CLEAR     57  48  72 CALM      30.11S
UNION CITY     CLEAR     55  55 100 CALM      30.09S
PARIS          CLEAR     50  48  92 CALM      30.11R
LEXINGTON      CLEAR     54  52  94 CALM      30.09S
SAVANNAH       CLEAR     52  52 100 CALM      30.10S
$$

TNZ008-025-027-028-033-062-065-066-301100-
NORTH MIDDLE TENNESSEE

CITY           SKY/WX    TMP DP  RH WIND       PRES   REMARKS
NASHVILLE      CLEAR     58  56  93 CALM      30.11R
DICKSON        CLEAR     55  52  88 CALM      30.10R
PORTLAND       CLEAR     54  54 100 CALM      30.09S
CLARKSVILLE    CLEAR     55  53  93 CALM      30.10R
LEBANON        CLEAR     56  54  93 CALM      30.09R
SMYRNA         CLEAR     56  56 100 CALM      30.11R
MURFREESBORO   CLEAR     58  56  93 CALM      30.10R
COOKEVILLE     CLEAR     52  52 100 CALM      30.11R
CROSSVILLE     CLEAR     52  50  93 CALM      30.13S
$$

TNZ061-075-076-078-094-096-097-301100-
SOUTH MIDDLE TENNESSEE

CITY           SKY/WX    TMP DP  RH WIND       PRES   REMARKS
LEWISBURG      CLEAR     54  51  89 CALM      30.10R
FAYETTEVILLE   CLEAR     55  54  94 MISG      30.10R
TULLAHOMA      CLEAR     54  50  87 CALM      30.11S
WINCHESTER     CLEAR     52  52 100 CALM      30.11R
MCMINNVILLE    CLEAR     55  55 100 CALM      30.11R
COLUMBIA       CLEAR     55  55 100 CALM      30.09S
SHELBYVILLE    CLEAR     54  54 100 CALM      30.11S
$$

TNZ017-018-042-046-047-301100-
NORTHEAST TENNESSEE

CITY           SKY/WX    TMP DP  RH WIND       PRES   REMARKS
TRI CITIES     FOG       54  52  93 CALM      30.13R VSB 1/4
ELIZABETHTON   SUNNY     48  48 100 NE6         N/A
$$

TNZ012-013-036-069-073-074-301100-
CENTRAL EAST TENNESSEE

CITY           SKY/WX    TMP DP  RH WIND       PRES   REMARKS
KNOXVILLE      CLEAR     55  53  93 CALM      30.09
OAK RIDGE      CLEAR     55  53  93 CALM      30.12R
GATLINBURG     SUNNY     52  52 100 CALM      30.11R
MORRISTOWN     SUNNY     54  54 100 CALM      30.12S
$$

TNZ083-085-099-301100-
SOUTHEAST TENNESSEE

CITY           SKY/WX    TMP DP  RH WIND       PRES   REMARKS
CHATTANOOGA    CLEAR     59  54  83 CALM      30.08S
$$

SKY/WX REPORTED AS FAIR MEANS FEW OR NO CLOUDS BELOW
12 THOUSAND FEET.




USA.gov is the U.S. government's official web portal to all federal, state and local government web resources and services.